{"data":{"norad_id":54255,"intl_designator":"2022-155E","name":"JILIN-1 GAOFEN 03D52","alt_names":[],"object_type":"PAYLOAD","status":"ACTIVE","operator":null,"country":"PRC","launch_date":"2022-11-16","launch_site_code":"JSC","launch_vehicle":null,"mission":null,"orbit_class":"UNKNOWN","rcs_meters":null,"size_class":null,"mass_kg":null,"dimensions":null,"purposes":[],"wikipedia_slug":null,"has_3d_model":false,"image_url":null,"decayed_at":null,"tle_current":{"epoch":"2026-05-25T04:22:40.167840Z","epoch_age_seconds":59395,"freshness":"FRESH","line1":"1 54255U 22155E   26145.18240935  .00041908  00000+0  56810-3 0  9990","line2":"2 54255  97.6166 286.7163 0004930 103.4885 256.6919 15.57550185196125","mean_motion":15.57550185,"eccentricity":0.000493,"inclination_deg":97.6166,"raan_deg":286.7163,"arg_perigee_deg":103.4885,"mean_anomaly_deg":256.6919,"bstar":0.0005681,"rev_number":19612,"period_min":92.452879776712,"perigee_km":391.41063957569,"apogee_km":398.08870583497,"semimajor_km":6772.8866727053,"source":"CELESTRAK","updated_at":"2026-05-25T13:37:58.666204Z"}}}